Back to catalog

STARLINK-36667

AliveCommunicationsVLEO
NORAD 68975·PAYLOAD·🇺🇸 United States

Launched May 1, 2026 from Cape Canaveral Space Force Station

Loading…

Next Passes (next 24 hours)

TLE

FreshSource: CelesTrak SupGP

Epoch: Sep 14, 2026, 23:26 UTC

1 68975C 26099AA  26257.97687500  .00017095  00000+0  50526-3 0  2574
2 68975  53.1565 101.3400 0001433  87.2020 147.6670 15.34370499    18

Track STARLINK-36667 in real time with AllMySat

Download on the App Store